GFSGBSN_sfc_wetblb_105.txt.gz
Wetbulb
57.90 57.62 58.07 58.06 57.92 58.17 58.55 58.43 58.10 58.58 58.99 59.46 59.84 60.07 60.13 60.18 60.19 60.20 60.14 60.24 60.50 60.85 60.83 60.99 61.67 61.64 56.58 46.54 46.66 54.67 65.88 61.92 56.07 55.30 52.69 50.43 46.20 44.14 40.31 41.35 42.42 38.95 41.56 45.47 46.22 46.09 46.03
58.02 57.94 57.45 57.91 57.78 58.56 58.68 58.73 58.66 58.77 59.03 59.37 59.74 59.80 59.84 59.75 59.67 59.71 59.78 59.94 60.25 60.42 60.43 60.81 61.66 60.97 51.82 43.64 52.58 55.34 58.63 54.37 55.79 54.36 52.08 51.45 48.65 48.64 43.93 42.78 40.67 42.64 43.43 44.03 44.83 44.89 45.00
58.34 58.05 58.22 58.08 58.23 58.47 58.71 58.73 58.64 58.61 58.78 59.16 59.44 59.30 58.95 58.62 58.66 58.88 59.30 59.67 59.95 60.10 60.21 60.74 61.16 57.90 51.11 47.65 52.92 52.11 55.50 53.99 55.32 54.96 52.03 52.76 52.05 47.44 46.44 43.07 46.33 45.02 40.69 42.52 42.13 43.36 42.66
58.77 58.57 58.47 58.42 58.52 58.74 58.87 58.75 58.65 58.63 58.84 59.20 59.29 59.10 58.70 58.52 58.34 58.63 59.14 59.49 60.11 60.17 60.17 60.50 60.13 54.17 46.72 56.30 53.59 54.71 54.90 54.39 55.57 55.22 54.44 54.01 53.35 49.81 46.35 46.80 45.04 40.90 38.92 34.84 42.48 43.17 44.58
58.81 58.56 58.42 58.70 58.85 59.10 59.32 59.35 59.20 58.98 58.90 58.88 58.76 58.29 58.02 58.05 58.47 58.86 59.21 59.69 60.74 60.95 60.61 60.66 54.27 51.08 45.13 58.37 52.59 54.66 54.80 53.10 53.95 53.86 53.70 56.22 51.94 46.34 46.02 39.72 36.57 37.78 33.11 34.96 38.81 44.27 43.48
58.57 58.51 58.48 58.93 59.24 59.49 59.32 59.60 59.29 58.94 58.72 58.67 58.44 58.52 57.97 58.13 58.73 59.22 59.40 58.81 60.92 59.65 59.02 58.98 56.94 43.86 47.93 48.31 52.92 54.49 53.35 54.44 51.89 51.60 49.90 48.69 44.69 40.79 39.87 36.99 32.02 34.18 34.16 36.63 36.33 41.59 42.55
58.52 58.95 59.04 59.27 59.23 59.32 59.14 59.05 58.83 58.79 58.66 58.52 58.61 58.51 58.00 57.97 58.48 59.04 54.07 48.36 46.14 43.73 48.80 45.26 46.26 47.35 49.62 53.09 53.84 51.94 54.08 52.25 50.93 47.16 40.88 44.19 39.39 36.03 39.58 41.19 40.65 39.57 37.25 36.05 39.52 43.09 40.56
59.01 59.62 59.17 59.42 59.34 59.20 58.90 58.52 58.41 58.50 58.50 58.75 58.59 58.31 57.81 57.68 57.98 57.21 50.74 47.72 47.21 48.40 42.66 50.08 50.56 50.70 52.76 52.22 48.19 50.20 53.15 46.93 45.73 40.78 42.36 39.76 35.89 42.07 44.34 44.91 42.63 40.75 37.89 37.58 40.27 42.69 40.46
59.69 60.06 59.98 59.37 59.48 59.12 58.78 58.56 58.45 58.42 58.50 58.43 58.34 58.20 57.78 57.25 57.25 51.27 48.83 48.41 51.33 51.91 43.07 48.06 51.95 50.38 51.12 51.54 47.49 48.12 51.26 47.41 43.25 41.19 40.42 36.48 40.99 45.94 45.13 43.05 41.33 40.13 37.94 37.64 37.86 42.21 41.33
60.23 60.37 60.29 60.21 59.93 59.50 59.03 58.71 58.53 58.75 58.79 58.57 58.36 58.01 57.53 56.76 49.92 48.45 47.73 50.99 50.47 52.20 38.81 43.35 47.30 49.47 51.03 51.39 46.38 52.89 52.22 48.33 44.63 40.99 41.53 38.22 44.04 42.49 42.36 41.54 42.12 36.57 42.95 42.99 41.67 39.51 35.11
60.62 60.58 60.31 60.38 60.07 59.76 59.70 59.42 58.91 58.91 58.77 58.21 58.16 57.72 57.03 54.53 47.04 47.50 49.67 50.86 51.31 49.08 28.96 44.66 47.12 52.88 48.84 47.42 46.95 48.45 52.49 48.51 42.36 42.73 40.12 36.36 38.34 39.89 40.67 41.41 43.01 39.53 43.93 42.39 40.82 37.42 36.98
61.11 60.89 60.80 60.69 60.59 60.33 59.96 59.51 59.31 59.28 59.05 58.52 58.18 57.51 56.43 50.73 48.59 49.91 51.20 50.87 50.07 37.13 29.62 42.19 46.58 43.15 42.60 44.68 45.42 47.83 45.43 46.38 46.37 39.81 38.90 38.30 42.56 43.76 42.37 44.47 43.86 44.81 42.46 39.62 37.29 34.50 27.86
61.55 61.55 61.11 60.84 60.74 60.36 59.98 59.81 59.70 59.76 59.75 58.73 57.59 56.91 54.57 52.70 46.56 51.08 51.53 46.22 35.88 31.55 42.18 40.33 40.12 41.77 40.35 40.59 42.47 42.75 39.73 37.58 35.20 31.51 31.09 35.39 37.90 41.37 44.55 39.18 42.00 42.31 37.44 29.44 23.31 24.59 28.32
61.45 61.50 61.07 60.84 60.75 60.42 60.16 59.96 59.76 59.83 59.67 57.95 56.49 54.66 53.51 52.57 51.11 51.76 46.92 38.60 31.13 38.41 37.51 43.30 41.09 40.43 38.27 40.60 39.64 40.01 37.79 35.09 38.24 35.38 30.46 28.55 28.54 37.88 42.51 38.30 36.53 38.90 36.90 33.16 22.21 24.78 27.99
61.34 61.20 60.99 60.77 60.70 60.44 60.19 59.97 59.77 59.66 58.96 56.38 52.91 44.93 46.75 49.76 52.40 49.24 40.73 32.96 33.56 36.93 41.00 39.44 39.36 35.53 35.48 38.96 37.83 37.25 35.28 35.57 36.85 37.05 30.54 29.63 30.18 39.65 41.70 41.07 40.95 37.50 34.15 37.75 32.67 33.87 27.87
61.31 61.09 60.91 60.81 60.49 60.10 60.04 60.01 59.86 59.55 58.27 53.60 44.48 44.03 45.14 52.28 51.05 45.03 38.85 36.89 37.12 41.83 41.61 40.51 33.45 36.62 32.06 35.06 35.62 34.81 34.08 38.91 38.62 39.92 37.76 33.57 28.25 36.21 39.46 41.76 41.58 38.98 40.36 33.54 33.60 27.06 24.94
61.61 61.32 61.12 60.84 60.27 59.63 59.55 59.97 60.13 59.66 57.48 54.05 42.76 38.96 44.81 50.32 47.31 41.17 35.56 36.21 40.43 42.80 43.03 38.67 36.04 35.38 35.24 35.00 34.47 33.20 34.76 38.84 40.13 40.17 38.70 34.54 31.22 31.87 35.96 34.38 32.73 33.70 32.34 37.19 35.46 35.59 29.46
62.11 61.55 61.28 60.88 60.16 59.42 59.40 59.60 59.76 59.29 55.49 48.16 39.99 35.66 46.03 46.66 39.02 36.19 35.98 39.12 44.30 41.16 42.21 40.80 40.19 39.01 36.40 36.45 34.46 34.04 34.85 37.15 41.10 40.28 35.80 36.01 31.32 27.38 31.71 37.25 38.07 35.55 32.58 35.82 29.65 26.99 34.04
62.61 61.99 61.40 61.01 60.29 59.30 59.00 59.30 59.26 57.83 52.26 43.30 36.87 37.24 45.78 44.64 35.44 35.52 37.37 41.20 41.97 40.56 40.11 40.25 39.31 40.49 39.13 36.05 33.06 35.90 36.52 41.78 40.18 38.68 34.58 35.51 30.09 24.13 28.20 32.38 35.50 33.12 34.60 34.32 37.35 33.31 29.31
62.68 62.25 61.86 61.18 60.28 59.32 58.63 58.59 58.48 57.38 53.78 42.91 37.53 34.46 40.56 41.17 38.60 37.58 36.30 38.75 38.68 42.27 41.15 41.17 39.44 39.89 37.16 35.11 37.25 35.03 34.99 40.05 39.56 40.02 46.29 40.68 31.77 28.22 24.17 28.56 31.93 31.01 34.35 34.38 32.34 25.30 25.33
61.86 62.20 62.11 61.72 60.50 59.52 58.76 58.47 58.46 57.27 54.13 42.38 36.84 35.44 38.86 35.39 37.83 36.23 38.49 39.42 37.92 37.37 39.88 40.59 37.17 38.18 35.68 31.02 32.78 33.26 34.97 35.42 37.46 40.92 36.85 34.40 28.43 29.12 32.00 33.95 33.91 33.38 33.67 34.01 30.20 29.99 26.39
60.28 61.43 62.04 61.89 60.78 59.90 59.11 58.44 58.24 56.43 52.31 40.12 35.23 34.78 37.17 37.51 38.38 37.68 38.35 37.34 37.66 38.04 37.20 35.41 34.61 36.75 35.50 32.71 34.45 32.27 33.51 32.31 32.04 34.80 31.53 31.65 26.47 29.34 29.62 34.36 34.02 32.53 34.96 34.64 32.24 31.26 31.35
55.32 58.87 60.54 61.07 60.97 60.03 59.10 58.13 57.45 54.92 50.11 39.94 38.37 40.32 39.53 37.51 35.50 36.48 36.49 37.93 39.05 39.88 39.07 38.62 37.50 35.48 33.59 35.42 36.36 36.77 36.63 35.77 35.01 32.84 30.51 29.80 27.57 27.93 25.11 31.49 32.31 29.58 32.65 32.76 32.02 33.22 31.97
53.76 53.94 54.76 57.95 60.52 60.07 59.34 58.56 57.61 54.31 52.15 41.75 40.05 41.83 37.26 34.14 36.83 38.52 40.20 40.39 39.43 38.85 37.94 37.79 37.37 35.21 38.39 39.67 38.39 35.47 34.04 34.88 33.94 33.58 34.37 29.30 29.73 28.62 25.70 29.22 24.30 32.78 36.12 36.09 35.09 36.05 35.60
53.15 53.63 53.87 54.66 55.23 58.92 59.30 59.12 58.47 55.50 53.52 44.65 42.40 39.16 37.30 32.05 37.37 39.05 40.06 39.46 38.82 38.91 37.14 38.03 38.91 39.25 39.66 36.62 31.56 30.50 31.37 32.32 33.40 33.22 31.37 32.20 29.84 26.95 24.12 24.94 30.53 33.95 34.61 34.13 32.52 32.69 37.81
51.41 52.34 54.14 54.74 55.40 56.56 58.80 58.73 58.31 56.25 54.39 48.38 44.59 42.82 37.62 33.65 33.29 41.03 39.32 39.02 35.81 35.13 34.68 36.90 38.15 38.20 37.78 33.71 31.59 26.27 25.57 29.37 29.86 31.36 32.38 32.12 32.28 29.60 26.47 23.81 23.93 33.18 35.45 36.74 35.32 28.45 37.43
52.39 51.83 52.96 54.45 54.28 54.73 58.78 58.59 58.31 56.53 54.99 51.16 44.41 47.03 40.89 33.68 35.77 40.19 37.72 38.35 38.61 35.93 34.64 33.35 36.14 35.78 35.30 29.94 27.39 25.78 26.66 32.16 28.07 28.79 28.30 28.62 28.27 24.77 26.22 23.11 29.41 36.41 37.65 37.08 25.95 30.47 37.43
52.97 52.70 51.94 51.95 54.27 54.16 55.26 58.69 58.14 56.69 55.61 52.38 45.36 45.87 43.22 37.37 37.39 42.50 43.15 38.84 37.66 37.37 34.14 34.73 34.19 33.45 31.55 27.70 27.25 27.31 26.87 30.59 30.08 31.47 31.24 29.95 26.58 25.26 26.47 23.88 25.75 39.22 36.31 32.99 35.64 35.91 38.18
52.33 52.60 52.67 52.71 54.06 54.52 54.85 57.89 57.98 57.10 55.84 54.11 42.64 46.67 45.03 39.21 36.60 44.21 44.37 43.51 42.15 41.59 37.38 33.25 36.00 32.88 34.82 29.40 28.75 29.17 29.51 30.22 30.50 27.48 32.86 28.94 33.54 30.71 31.31 31.38 38.50 39.07 38.28 39.08 38.80 38.56 38.64

GFSGBSN_sfc_wetblb_111.txt.gz
Wetbulb
57.30 57.85 57.77 58.00 57.95 58.80 59.07 59.09 58.95 58.98 59.20 59.62 59.96 59.89 59.82 59.75 59.71 59.64 59.72 59.85 60.23 61.03 61.28 61.13 61.31 61.99 57.19 49.73 50.48 54.06 67.00 60.17 56.08 56.24 53.31 51.45 48.86 47.20 44.41 44.60 44.95 42.47 43.55 45.45 46.94 47.01 46.86
57.65 57.36 57.45 58.08 58.19 58.73 59.01 59.11 59.04 59.03 59.29 59.70 59.92 59.67 59.18 59.01 58.94 59.24 59.70 60.21 60.69 60.82 60.68 60.74 61.33 61.22 52.35 46.63 53.86 54.93 56.63 55.06 56.30 55.47 53.51 52.68 50.21 50.26 46.61 45.14 44.25 44.91 44.72 45.49 46.55 46.90 46.41
58.58 58.27 58.11 58.44 58.34 58.70 58.95 59.19 59.32 59.40 59.48 59.45 59.51 59.05 58.56 58.46 58.65 59.20 59.92 60.42 60.57 60.35 60.33 60.51 61.11 57.47 51.67 49.92 54.41 54.89 54.96 54.34 55.86 56.02 53.17 53.57 53.19 50.42 48.61 45.45 47.58 46.34 43.09 44.95 45.96 46.18 45.87
59.15 59.21 58.87 58.55 58.51 58.65 58.95 59.02 59.22 59.25 59.03 58.98 58.79 58.38 58.27 58.72 58.72 59.50 60.07 60.26 60.55 60.57 60.12 60.38 60.43 55.32 47.88 55.87 55.90 55.32 55.69 55.57 56.24 56.34 55.71 55.71 54.73 50.77 48.31 48.57 45.96 43.02 42.63 40.05 46.27 46.05 46.74
59.39 59.32 59.11 58.60 58.94 58.37 58.96 59.28 59.40 58.87 58.67 58.58 58.57 58.44 58.40 58.35 58.87 59.48 59.81 60.73 61.33 60.83 60.65 60.58 55.55 52.30 46.84 58.21 52.72 54.89 56.04 53.90 54.51 54.74 54.98 55.28 52.43 47.77 47.25 42.88 40.97 41.10 37.79 38.44 40.84 45.72 44.94
59.62 59.29 58.70 58.64 59.26 59.43 59.56 59.23 58.78 58.52 58.55 58.58 58.59 58.77 58.49 58.62 59.02 59.42 59.13 59.56 61.49 58.39 58.02 57.94 55.34 46.63 49.27 48.65 52.36 53.98 55.54 54.98 53.09 52.40 50.38 49.54 46.60 44.21 42.84 41.74 35.45 37.50 37.42 38.92 38.88 43.93 44.46
60.00 59.33 58.66 58.95 59.30 59.59 59.45 59.11 58.67 58.47 58.48 58.46 58.68 58.66 58.35 58.47 58.52 58.76 52.58 46.72 45.08 45.23 48.64 46.09 47.11 46.55 48.77 52.70 53.56 51.99 54.36 52.94 51.81 48.09 43.55 45.38 41.92 39.58 41.83 42.27 42.53 40.90 38.77 38.66 41.98 45.08 42.35
60.36 59.82 58.93 59.39 59.53 59.54 59.13 58.82 58.59 58.34 58.27 58.72 58.68 58.57 58.19 58.16 57.65 57.16 50.24 46.99 47.28 48.12 43.29 49.28 49.79 50.07 51.42 52.44 47.99 49.89 53.99 48.85 47.55 42.99 44.31 41.50 38.60 43.07 44.16 44.06 43.09 41.81 39.38 38.87 41.91 44.17 42.43
60.70 60.12 59.46 59.71 60.03 59.38 59.24 58.92 58.56 58.28 58.38 58.61 58.62 58.43 58.07 57.36 56.16 50.90 48.34 47.71 50.29 51.79 43.46 47.55 51.11 50.63 51.09 51.63 48.00 48.39 51.57 48.68 45.70 43.09 41.82 39.08 41.37 44.75 42.87 42.42 40.95 40.56 38.37 38.80 38.73 42.56 43.07
61.10 60.39 59.78 59.90 60.23 59.79 59.48 59.13 58.74 58.44 58.58 58.73 58.82 58.44 57.75 56.77 50.09 48.35 47.72 50.73 50.81 52.21 38.69 42.50 46.95 49.32 50.39 51.35 46.57 52.36 51.63 49.57 46.42 42.19 41.95 40.09 42.61 41.12 41.03 40.64 41.75 36.41 42.27 41.38 40.62 38.14 33.84
61.64 60.75 60.27 60.52 60.48 59.87 59.82 59.50 58.86 58.54 58.70 58.56 58.73 58.07 57.15 54.59 46.94 46.48 49.47 51.26 52.44 47.71 30.85 43.99 46.39 51.16 47.53 47.04 46.87 47.77 49.95 49.23 44.03 42.27 41.96 37.64 38.59 38.71 40.28 41.00 42.39 39.61 43.25 41.71 40.11 37.74 36.41
62.06 61.22 60.77 60.64 60.65 60.34 59.85 59.44 58.99 58.82 58.85 58.81 58.75 57.74 56.24 49.05 47.42 49.20 51.19 51.40 48.22 38.05 31.41 41.66 45.32 42.12 42.74 44.01 44.21 45.74 45.13 45.90 45.82 40.53 39.26 39.81 42.00 41.77 43.54 43.89 43.73 44.61 41.74 39.22 37.23 35.54 31.31
61.82 61.55 60.78 60.59 60.72 60.27 59.90 59.62 59.26 58.87 59.19 58.88 58.21 56.95 53.19 51.69 45.13 50.21 50.66 45.51 36.80 32.72 41.36 39.53 39.59 40.87 39.75 39.80 41.50 41.17 40.52 38.59 36.70 33.33 31.78 35.33 38.06 40.87 43.65 39.32 41.66 42.96 38.49 32.18 30.90 29.64 29.46
61.88 61.35 60.58 60.46 60.64 60.34 60.03 59.72 59.39 59.08 59.08 58.46 56.91 53.83 49.35 51.55 50.09 50.79 45.89 39.31 32.36 37.78 37.81 41.83 39.85 39.72 38.04 39.37 39.32 38.84 39.01 36.47 39.10 36.71 32.34 30.78 30.76 37.71 41.26 40.05 37.50 39.74 38.14 31.90 24.96 26.99 29.93
61.88 61.30 60.55 60.28 60.57 60.40 60.13 59.87 59.50 59.20 58.59 56.65 51.34 42.14 44.12 47.66 50.71 47.19 41.22 34.39 35.03 37.38 40.74 38.78 38.21 35.53 35.87 38.16 37.98 37.50 37.37 36.96 38.49 38.87 34.00 31.56 31.30 38.62 40.55 41.41 41.57 38.25 35.84 39.97 32.84 31.55 30.39
61.93 61.40 60.81 60.35 60.18 60.12 60.08 60.00 59.76 59.16 58.15 52.88 43.79 39.91 41.41 50.46 49.38 43.40 38.97 37.13 37.70 41.61 41.06 39.86 34.09 36.90 33.15 35.10 36.16 35.46 35.46 39.29 39.15 40.45 39.96 36.45 30.13 36.44 38.71 42.47 40.58 40.23 41.58 34.73 34.04 26.28 25.60
62.41 61.78 61.24 60.59 59.89 59.53 59.64 60.03 60.11 59.37 57.40 51.30 39.29 35.81 41.71 48.78 45.10 40.47 35.83 35.78 39.45 42.83 42.53 38.59 36.23 35.55 35.69 35.83 35.82 34.70 35.70 38.74 40.09 39.67 39.80 37.26 33.84 33.38 36.58 35.90 34.85 36.00 34.71 36.33 36.96 35.25 29.64
58.44 60.80 61.63 60.90 59.88 59.21 59.35 59.63 59.81 59.07 54.26 46.82 36.47 32.50 42.56 44.53 38.24 34.23 34.95 38.40 43.38 40.92 42.37 41.26 39.71 38.71 36.96 36.92 35.44 35.18 35.51 38.26 39.21 39.56 35.01 37.96 32.80 29.15 33.02 37.09 37.50 38.09 35.23 35.38 31.98 30.25 34.28
57.97 58.14 58.92 61.33 60.15 59.06 58.91 59.24 59.24 56.98 53.27 41.24 34.22 33.88 43.35 42.57 33.65 34.16 37.23 39.41 41.25 39.92 39.71 39.81 39.53 40.58 39.55 36.94 33.78 36.16 37.23 40.97 39.78 38.53 35.98 37.24 31.96 27.52 29.69 34.42 36.18 34.77 35.89 36.01 35.47 34.23 31.20
56.35 57.53 57.63 58.59 60.39 59.11 58.55 58.61 58.44 56.82 52.14 42.33 34.53 31.00 37.59 39.70 36.88 36.46 35.45 36.82 37.76 41.35 40.38 40.52 39.49 40.31 37.68 35.94 37.28 35.63 36.23 39.94 39.50 40.87 44.48 40.82 32.54 30.49 27.28 29.77 32.93 31.62 33.53 35.04 34.03 30.12 30.08
56.18 56.06 56.43 56.62 56.48 59.39 58.69 58.50 58.33 57.09 52.28 42.99 34.46 33.41 36.81 34.44 35.96 36.41 37.46 38.22 37.11 37.06 39.96 40.15 37.84 38.55 37.18 33.34 33.63 33.74 35.98 36.10 37.31 40.18 36.11 34.70 29.97 30.80 31.70 32.76 32.37 31.92 32.10 32.87 32.58 32.84 31.80
55.45 55.50 55.25 55.19 55.26 56.09 58.99 58.72 58.19 56.35 52.84 41.14 31.61 30.99 34.26 34.98 37.04 36.76 37.74 36.22 37.24 37.95 38.40 37.62 36.40 38.51 36.46 34.08 36.03 34.76 34.84 33.62 33.96 35.38 33.13 32.91 29.30 30.23 29.03 33.41 32.67 31.51 33.96 34.16 33.92 34.01 32.89
54.38 54.24 54.18 54.10 54.45 54.51 58.67 57.95 57.62 55.09 53.07 44.09 37.64 36.59 38.48 36.81 34.99 35.11 34.43 37.11 38.31 39.08 38.96 40.20 39.38 36.52 34.88 36.55 37.57 38.37 37.53 36.38 36.06 34.16 31.91 31.84 30.02 29.85 27.51 30.82 31.82 31.23 34.12 34.31 34.54 34.95 34.87
53.76 54.25 53.95 54.22 54.39 54.82 55.88 58.26 57.57 54.87 54.89 44.44 38.33 39.77 36.45 32.20 35.68 36.01 39.12 40.03 38.80 38.78 37.76 37.86 38.20 36.96 39.26 39.89 38.32 36.30 35.17 34.67 34.32 33.69 34.25 29.89 30.33 30.07 27.87 30.26 27.21 35.10 38.28 37.59 35.91 35.97 37.04
53.46 53.77 53.88 54.19 53.86 54.35 54.69 58.39 58.31 55.37 55.35 46.06 40.55 41.21 36.69 31.16 35.47 36.96 39.15 39.11 38.26 38.11 36.13 36.86 37.61 39.37 40.13 37.30 33.61 32.01 31.39 33.08 31.96 31.76 32.35 32.56 30.64 28.89 27.11 26.95 31.42 35.03 36.07 35.84 34.94 35.42 38.48
52.61 53.33 53.59 53.24 52.53 53.61 54.25 56.67 58.10 56.19 55.35 52.62 42.01 42.71 39.11 33.60 32.79 39.81 38.78 38.46 35.24 33.94 35.09 36.08 37.82 38.51 38.41 34.17 31.90 29.83 29.19 30.37 30.42 30.63 31.92 31.93 31.72 30.16 28.24 26.75 26.28 34.08 37.64 38.77 38.43 32.59 38.11
52.03 52.68 53.18 53.13 51.85 53.18 54.61 54.11 54.08 54.66 55.56 54.10 48.86 43.76 39.38 34.23 35.42 39.67 37.44 37.66 38.77 37.06 33.73 34.50 36.03 36.37 36.86 31.84 30.15 29.24 29.12 32.54 29.39 29.38 26.90 27.35 28.46 26.67 27.03 27.53 31.06 36.81 38.41 38.53 32.38 36.03 38.49
51.36 51.77 52.47 52.73 52.35 52.12 53.22 53.43 54.10 54.72 55.74 55.12 50.68 47.65 43.58 35.20 35.86 39.96 42.22 38.86 38.10 38.14 34.41 34.80 36.28 34.06 31.74 31.14 30.17 29.03 27.62 30.47 30.34 31.37 29.58 29.02 27.08 26.05 26.58 26.25 26.30 38.57 37.71 34.50 38.56 39.72 40.30
50.78 51.20 51.74 52.46 52.53 52.24 52.00 52.72 53.76 54.52 54.40 55.80 48.06 48.68 47.45 41.23 37.69 42.52 43.80 43.97 43.19 43.14 38.65 34.08 36.51 33.51 34.26 30.44 28.55 28.82 29.11 29.84 30.86 28.77 32.95 31.46 33.71 31.53 31.97 32.49 38.87 39.57 39.37 39.95 40.60 41.00 41.22

GFSGBSN_sfc_wetblb_114.txt.gz
Wetbulb
57.96 58.40 58.17 58.48 58.31 58.81 59.17 59.23 59.11 59.18 59.57 60.04 60.29 60.07 59.71 59.55 59.54 59.60 59.92 60.40 60.91 61.40 61.53 61.51 61.54 62.14 60.60 53.85 53.35 57.44 66.15 62.48 59.42 58.55 56.55 55.12 53.24 51.82 48.74 49.51 49.26 47.14 49.03 49.64 51.01 50.95 51.13
57.91 58.54 58.37 58.81 58.87 58.93 59.06 59.23 59.30 59.49 59.58 59.76 59.85 59.42 59.09 59.09 59.22 59.75 60.23 60.66 61.24 61.39 61.25 61.09 61.42 61.36 56.86 49.69 57.63 58.29 58.39 58.09 58.39 57.87 56.17 56.08 53.79 53.64 50.72 49.78 48.81 50.12 50.21 50.53 51.04 51.05 51.12
58.69 58.79 58.80 58.82 59.09 59.07 59.22 59.16 58.95 59.31 59.30 59.20 59.05 59.00 58.97 58.87 59.15 59.81 60.37 60.66 60.94 60.90 60.75 60.80 61.20 59.97 55.07 53.15 59.08 59.37 57.88 57.59 58.18 57.81 55.37 56.46 56.19 53.68 52.76 49.53 51.25 50.42 47.20 49.72 49.90 50.29 49.62
58.93 58.97 58.60 58.62 58.74 59.18 59.20 59.35 59.02 59.11 58.80 58.73 58.84 58.67 58.61 59.10 59.14 59.82 59.93 60.61 61.33 60.55 60.27 60.44 60.62 59.33 52.30 59.41 60.93 58.44 58.85 58.02 58.74 58.78 57.42 57.58 57.07 53.72 52.02 52.90 50.32 47.51 47.47 44.55 49.42 49.70 49.49
59.65 59.43 59.09 59.04 58.65 58.79 58.79 59.01 59.23 58.70 58.71 58.73 58.61 58.43 58.41 58.43 59.00 59.60 59.19 61.08 61.86 61.08 60.71 60.54 59.39 56.64 50.67 59.93 55.81 57.97 58.77 56.30 57.04 57.35 57.71 56.80 55.57 52.05 51.54 48.38 47.03 46.96 42.22 43.62 45.50 50.16 48.62
60.21 59.86 59.50 58.94 58.88 59.06 59.52 59.56 59.05 58.67 58.62 58.53 58.60 58.91 58.57 58.59 58.75 59.38 58.49 59.68 60.56 59.10 60.15 59.96 57.46 52.27 53.57 52.08 55.88 56.90 58.69 57.45 55.46 54.62 53.30 52.86 52.95 49.71 49.91 46.52 39.38 41.26 42.21 43.51 43.62 47.51 48.31
60.76 60.32 59.88 59.01 59.15 59.49 59.77 59.35 58.89 58.64 58.40 58.57 58.85 59.06 58.50 58.56 58.16 58.28 57.06 55.18 52.96 51.23 54.64 50.83 51.52 50.88 52.52 56.72 57.01 55.31 57.35 55.98 54.84 52.68 46.98 50.15 47.54 43.71 45.23 46.54 46.33 45.11 43.63 42.92 45.85 48.14 46.05
61.25 60.86 60.36 59.38 59.35 59.69 59.73 59.23 58.78 58.41 58.23 58.65 58.76 59.03 58.39 58.27 57.84 55.10 56.84 52.56 51.84 53.00 49.80 52.79 53.18 53.72 54.84 55.91 51.42 53.94 57.73 51.74 50.93 46.83 48.61 46.95 44.42 46.55 47.48 47.06 45.57 44.88 43.11 43.37 45.75 47.11 46.22
61.80 61.22 60.94 59.97 59.56 60.05 59.72 59.46 59.00 58.46 58.38 58.57 58.68 58.89 58.13 57.36 57.06 56.34 54.73 51.95 55.21 55.70 50.50 51.16 54.17 53.76 53.78 54.58 50.59 51.97 53.37 51.90 49.00 46.37 45.59 43.36 44.92 46.71 45.15 45.23 43.51 44.11 42.10 42.19 42.67 45.86 46.32
62.23 61.60 61.33 60.60 59.89 60.18 60.20 59.88 59.17 58.57 58.40 58.57 58.76 58.74 57.61 56.42 54.89 54.58 52.90 55.13 56.56 57.03 46.68 46.72 49.93 52.23 52.89 52.68 49.28 53.58 53.02 51.46 49.10 44.97 45.39 44.23 45.42 43.45 44.61 43.71 44.33 41.23 45.34 44.66 43.65 42.20 37.96
62.54 62.23 61.66 61.11 60.54 60.68 60.35 59.93 59.29 58.53 58.47 58.40 58.64 58.34 57.03 54.02 54.87 52.82 54.08 57.38 57.63 56.01 38.91 47.43 49.25 53.36 51.63 49.62 49.52 50.10 51.73 51.05 46.25 45.71 45.11 42.02 42.67 42.36 43.01 42.99 45.07 42.81 46.60 44.63 43.37 42.46 41.13
62.55 62.50 61.90 61.07 60.45 60.61 60.20 59.69 59.29 58.68 58.40 58.57 58.61 58.06 56.44 53.97 55.68 54.79 57.03 56.97 56.16 45.57 38.17 44.84 48.11 45.39 46.56 47.54 47.48 49.42 49.16 50.45 48.13 44.07 43.86 43.23 45.38 44.53 45.27 45.86 45.41 47.30 45.74 43.47 43.02 42.09 37.77
62.44 62.22 61.70 61.05 60.51 60.36 60.24 59.83 59.45 58.77 58.81 58.67 58.16 57.48 54.45 54.42 52.40 56.50 57.10 54.53 44.89 40.46 45.46 43.61 43.62 44.23 44.04 43.76 44.82 45.26 44.83 43.91 41.88 39.26 39.67 42.16 41.74 44.34 45.51 43.68 46.22 46.19 44.29 39.65 37.63 37.07 34.77
62.63 62.01 61.36 60.91 60.46 60.34 60.33 59.93 59.51 59.06 58.93 58.35 57.16 53.10 52.91 55.05 57.10 56.49 55.11 47.55 39.90 42.41 43.20 45.05 43.33 43.40 42.41 43.27 43.12 43.54 43.48 42.68 43.82 42.17 40.27 37.26 36.57 41.42 44.36 42.92 41.22 42.62 42.72 37.22 30.62 31.82 35.09
59.56 62.02 61.29 60.82 60.42 60.28 60.31 59.99 59.56 59.23 58.51 57.10 52.18 51.17 52.06 54.81 55.86 55.67 50.06 43.66 43.80 43.98 45.55 43.31 42.16 41.04 40.97 41.87 42.89 42.52 42.28 42.04 42.55 43.20 38.06 37.55 37.30 42.93 43.24 45.10 45.17 41.94 39.68 43.55 36.25 36.62 35.00
58.66 60.72 61.52 60.96 60.36 59.92 60.17 60.08 59.69 59.19 58.12 53.93 52.77 47.99 49.17 55.19 56.24 52.76 47.78 43.99 44.38 46.02 44.76 43.51 40.25 41.65 39.59 40.40 41.01 41.24 40.58 43.11 42.15 43.43 44.15 40.67 35.67 40.68 41.79 45.58 44.76 43.72 44.82 38.65 40.95 31.83 30.07
56.91 57.44 59.88 61.17 60.28 59.39 59.67 60.09 59.97 59.23 57.01 52.03 49.18 43.26 50.14 55.59 52.77 49.41 44.04 44.90 44.79 46.69 45.94 42.89 41.58 40.73 41.00 40.86 41.17 40.32 40.37 42.42 43.72 42.03 43.59 42.00 38.72 38.80 40.73 39.66 39.17 41.61 40.72 40.61 41.38 39.44 33.53
56.59 56.54 57.89 58.76 60.43 59.25 59.34 59.69 59.69 58.77 54.72 51.08 45.41 39.14 50.53 51.81 45.46 46.17 44.35 44.84 45.78 45.12 45.78 44.27 44.18 42.86 42.36 42.42 40.57 40.24 40.18 42.65 43.87 42.46 38.88 41.98 39.46 35.69 37.19 41.19 41.82 41.71 39.91 39.34 37.20 33.74 39.64
56.34 56.49 56.60 57.73 58.32 59.07 58.90 59.28 59.18 56.86 53.32 49.19 42.35 42.00 50.05 49.16 41.00 42.57 44.26 43.24 45.26 43.51 43.99 43.70 42.98 44.17 43.86 42.16 39.57 41.28 41.88 43.72 42.95 41.83 40.59 42.39 38.61 34.86 36.06 39.65 40.62 38.49 39.31 39.20 39.53 40.41 35.94
56.20 56.47 56.36 56.99 57.19 56.53 58.65 58.76 58.45 56.39 54.21 48.93 42.26 38.64 44.48 46.75 45.61 43.76 43.34 42.70 42.20 44.43 44.06 44.34 43.49 44.26 41.93 40.13 42.32 40.53 41.17 42.82 42.65 43.07 44.84 44.01 39.79 37.03 34.38 36.13 37.62 35.90 37.24 38.57 37.99 36.84 36.66
54.75 55.60 56.31 56.25 55.73 55.78 55.73 58.56 58.54 56.74 53.55 49.00 42.56 40.58 45.10 40.00 41.59 42.54 44.57 44.50 41.81 39.98 43.58 43.90 40.93 42.15 40.80 37.65 38.56 39.67 41.58 41.53 40.28 42.23 41.25 42.20 36.55 37.06 37.93 37.91 37.36 36.47 35.95 37.27 36.29 39.86 36.30
53.82 54.62 55.28 55.87 55.87 55.09 55.10 55.96 58.34 56.99 52.82 49.58 42.15 40.19 40.93 43.35 42.77 42.06 42.02 41.96 42.19 42.03 42.84 41.72 41.10 42.50 41.90 40.18 41.30 39.78 41.42 40.85 40.76 40.28 39.58 38.57 36.08 35.54 35.82 37.53 37.25 36.03 39.06 39.41 39.24 39.53 39.27
52.93 53.72 54.48 54.85 54.76 54.41 54.43 54.46 54.22 56.35 53.56 50.64 45.29 44.00 44.37 41.37 41.59 40.33 40.95 42.56 42.50 44.03 44.10 45.58 44.62 42.40 40.38 43.18 45.00 44.76 45.01 43.99 42.93 40.27 39.01 37.64 37.52 35.30 34.68 36.77 37.88 36.55 39.66 40.10 40.72 41.30 39.87
52.10 52.84 53.54 54.39 54.76 54.61 54.57 54.63 54.35 55.90 54.42 50.12 46.45 45.42 42.44 37.76 40.24 40.42 41.96 42.86 42.41 43.97 44.39 44.11 45.03 44.14 43.89 44.13 43.78 43.61 42.19 40.42 40.09 39.25 40.80 37.43 36.42 36.49 34.30 37.48 31.80 39.47 42.70 41.82 40.53 41.40 42.32
51.72 52.38 52.85 53.94 54.06 54.51 54.43 54.43 55.01 55.81 55.06 51.24 46.02 45.35 44.13 40.96 40.20 40.34 42.08 42.27 43.74 44.91 42.85 42.82 42.74 45.61 45.95 44.59 41.45 38.10 37.58 37.76 36.42 36.79 38.06 39.59 37.89 35.05 33.86 34.62 38.67 40.34 40.69 40.58 39.30 40.93 44.03
51.38 52.00 52.59 53.19 53.45 54.29 53.67 53.53 54.22 54.66 55.33 52.46 45.74 46.65 44.52 42.95 39.40 43.37 41.86 42.57 40.61 41.51 40.48 39.76 41.31 44.65 44.60 42.08 39.93 36.83 36.70 38.45 35.28 34.35 37.04 37.20 38.70 35.81 35.10 31.72 31.10 39.15 41.71 42.82 42.43 37.76 43.31
50.96 51.61 52.14 52.52 53.18 53.67 52.93 53.23 54.32 54.56 55.46 55.26 49.69 45.83 42.94 39.28 42.93 44.52 42.32 41.30 43.83 42.98 41.80 39.68 40.09 40.61 42.74 40.68 37.62 36.28 37.01 38.86 36.35 35.81 32.81 34.01 34.74 33.10 34.86 34.00 37.97 43.70 42.90 42.43 35.96 40.34 43.54
50.38 50.83 51.18 51.89 52.31 53.03 52.85 52.38 54.11 53.67 54.21 55.12 50.23 47.54 45.02 40.29 41.48 43.94 45.67 42.88 41.89 43.59 40.47 40.47 40.37 39.71 40.31 39.06 39.00 37.57 37.20 38.56 37.68 39.27 35.97 35.81 34.10 33.23 35.10 32.64 31.61 44.69 42.25 39.29 45.21 45.13 44.92
50.01 50.22 50.76 51.35 51.78 52.41 52.82 52.24 52.65 53.67 53.18 54.40 48.10 48.08 48.82 44.67 43.13 44.57 46.74 48.43 48.53 47.77 43.68 42.68 44.89 42.36 43.98 41.45 39.02 38.77 36.09 37.53 39.48 36.88 39.63 36.86 40.78 39.39 39.60 41.01 45.17 45.35 46.38 47.02 46.66 46.48 46.52

GFSGBSN_sfc_wetblb_117.txt.gz
Wetbulb
59.06 58.72 58.34 58.21 58.81 58.64 59.01 59.64 59.58 59.76 60.05 60.34 60.35 60.04 59.70 59.72 59.67 60.16 60.55 60.91 61.38 61.96 62.14 62.01 61.85 62.12 62.18 56.11 53.98 59.83 62.78 63.75 60.96 59.98 57.43 56.17 54.40 53.37 50.86 51.20 51.54 49.66 50.57 51.94 52.69 52.56 52.44
59.14 58.91 58.99 58.94 58.80 58.36 59.16 59.35 59.65 59.76 59.84 59.77 59.72 59.60 59.60 59.47 59.54 60.08 60.60 61.02 61.46 61.64 61.73 61.63 61.65 61.45 60.27 51.05 59.24 60.16 59.66 59.53 59.66 59.18 57.54 56.92 54.57 55.02 52.49 51.69 50.41 52.05 51.40 51.54 52.45 52.00 52.47
58.89 59.14 58.82 58.86 58.51 58.44 58.73 59.04 59.60 59.52 59.28 59.21 59.39 59.28 59.09 58.99 59.29 59.93 60.39 60.58 61.43 61.26 61.16 61.30 61.50 61.92 57.02 54.47 60.37 61.02 59.89 59.10 59.69 59.22 56.85 57.73 57.55 54.78 53.95 51.40 53.55 52.09 48.80 51.33 50.81 51.50 50.51
59.91 59.23 58.85 58.81 59.03 58.61 58.48 58.87 59.32 59.46 59.03 59.04 58.96 58.86 58.64 59.02 58.96 59.78 59.93 60.68 61.15 60.35 60.52 60.79 61.09 60.82 53.59 60.38 61.63 59.73 60.37 59.28 60.24 60.07 58.78 59.03 58.52 55.54 53.41 54.71 52.71 49.77 50.11 46.26 50.85 50.85 51.32
60.53 60.18 59.59 59.70 59.62 59.25 58.93 58.98 59.42 59.17 58.95 58.87 58.86 58.89 58.60 58.32 58.76 59.38 59.36 60.78 61.72 60.89 60.85 61.27 61.15 58.51 52.31 59.42 56.97 59.10 60.03 57.17 58.47 58.75 58.96 57.99 57.19 53.69 53.64 49.71 48.18 49.40 43.86 45.35 47.17 51.47 49.96
61.11 60.66 60.33 59.95 59.48 59.39 59.53 59.44 59.55 59.20 58.86 58.54 58.93 59.42 59.11 58.73 58.81 59.00 58.70 60.20 59.85 58.93 61.40 61.14 59.02 53.97 54.56 52.89 57.21 58.02 59.71 58.75 56.50 56.28 55.31 54.45 53.61 50.91 49.91 46.77 39.77 42.12 43.41 45.42 45.31 48.85 49.07
62.08 61.67 60.96 60.40 59.69 59.18 59.80 60.21 59.55 58.96 58.51 58.48 58.99 59.44 59.02 58.78 58.55 58.39 56.37 57.67 54.97 53.31 56.40 52.95 52.87 51.43 52.65 56.83 58.68 56.54 58.13 56.76 56.25 54.26 47.97 51.35 48.46 45.02 46.45 47.54 46.98 45.91 44.88 44.52 47.29 49.11 47.47
62.30 62.03 61.73 61.28 60.23 59.40 59.86 60.13 59.74 59.03 58.45 58.50 58.82 59.27 58.96 58.35 57.73 57.57 57.18 53.73 54.36 56.27 50.63 54.70 54.75 55.01 56.30 56.71 52.56 54.76 57.50 51.85 50.70 47.94 49.37 48.07 45.64 47.53 48.25 47.88 46.63 45.72 44.63 44.52 47.19 48.62 47.67
62.79 62.31 61.95 61.80 60.94 59.90 59.96 60.11 59.85 59.34 58.43 58.36 58.59 59.06 58.83 57.60 57.10 58.19 56.97 54.14 57.92 58.11 52.14 52.23 54.97 54.50 54.56 55.08 51.14 52.58 53.85 51.84 49.18 47.32 46.62 44.63 46.65 47.29 46.22 46.27 44.36 45.31 43.66 43.31 43.67 47.42 48.56
62.84 62.68 62.27 61.85 61.64 60.79 60.49 60.70 60.24 59.51 58.59 58.35 58.64 58.79 58.45 56.41 54.72 56.80 55.43 57.89 59.28 59.41 48.25 48.91 51.06 53.94 54.06 53.01 50.57 54.11 53.69 51.44 49.44 46.27 46.73 45.74 47.34 45.24 45.19 44.57 45.08 42.12 46.59 46.48 45.56 43.86 39.99
63.31 62.88 62.43 61.79 61.50 61.08 60.37 60.43 60.30 59.61 58.91 58.23 58.48 58.41 57.98 56.30 56.90 55.01 56.05 60.21 60.59 58.53 40.65 49.19 50.94 54.98 52.53 50.81 51.02 51.76 53.54 51.28 46.81 46.43 45.72 43.79 44.05 44.18 43.91 43.89 46.22 44.08 47.79 46.42 46.01 44.31 43.69
62.27 63.34 62.57 61.84 61.28 60.93 60.15 60.23 59.98 59.46 58.61 58.21 58.53 58.20 57.26 56.87 57.25 56.93 59.52 59.87 58.86 47.23 40.17 46.53 50.48 47.98 47.50 49.10 49.28 50.49 49.92 52.12 50.10 46.13 46.52 44.54 47.16 46.05 45.92 46.67 47.45 48.20 47.29 47.05 46.34 44.85 37.54
60.52 61.72 62.64 61.84 61.39 60.76 60.11 60.19 60.00 59.56 58.96 58.54 58.29 57.82 56.07 54.27 54.84 59.12 60.04 57.59 46.88 42.21 48.11 45.70 46.18 46.55 46.12 45.93 46.62 46.52 46.11 45.76 44.02 41.43 41.88 44.13 43.91 45.85 46.79 45.01 47.88 47.14 45.29 40.42 37.57 37.53 35.63
60.33 60.17 60.94 61.83 61.33 60.82 60.22 60.12 60.02 59.61 59.16 58.54 57.64 56.23 55.32 54.80 58.65 58.76 57.47 50.21 41.78 45.74 45.80 47.68 46.10 45.49 44.50 45.36 45.31 45.52 45.28 44.91 45.75 44.42 42.30 39.33 38.12 42.51 45.47 44.93 42.49 44.58 44.05 37.72 29.91 32.40 35.56
59.15 59.36 59.30 59.70 61.37 60.82 60.27 60.08 59.97 59.48 58.70 57.88 56.21 54.59 51.38 54.46 58.43 58.04 52.32 44.54 45.59 47.39 48.50 46.08 44.44 43.30 43.83 44.25 44.67 44.82 44.41 44.39 44.42 44.88 40.11 39.53 39.31 44.54 44.50 46.74 46.22 43.49 40.65 44.73 38.29 40.06 37.04
58.03 58.16 57.84 57.93 60.10 60.68 60.20 60.09 60.02 59.36 58.28 56.84 54.11 50.03 49.00 57.28 57.88 55.42 49.11 45.01 47.57 49.27 48.01 47.73 43.68 45.05 42.81 43.19 43.25 43.64 43.11 45.46 44.11 44.85 45.84 42.72 37.28 42.76 42.93 46.24 46.63 44.27 45.76 40.19 42.34 33.34 31.79
57.22 57.87 57.71 57.32 57.21 59.27 59.87 60.06 60.21 59.36 57.95 55.55 51.91 44.31 52.66 58.20 57.29 50.53 44.14 46.91 48.12 49.81 48.75 46.13 45.49 44.30 44.36 43.58 44.11 42.96 42.94 44.53 45.49 44.38 45.19 43.17 40.52 40.93 42.83 41.82 41.24 43.30 42.52 42.70 42.94 40.26 34.78
55.96 56.71 56.94 56.78 56.99 56.57 58.58 59.67 59.79 58.94 56.48 52.24 49.54 39.78 53.88 56.92 45.14 45.53 43.83 47.87 48.49 48.23 48.43 46.35 46.77 46.35 45.15 45.13 43.45 42.83 42.60 44.57 46.59 44.98 41.99 43.83 42.06 38.35 39.42 43.56 44.62 43.77 41.51 41.75 37.59 36.05 40.23
54.86 55.60 56.32 56.99 56.83 56.86 57.10 59.43 59.39 57.47 54.01 53.37 45.22 44.47 53.38 53.01 40.22 41.75 46.03 46.32 47.64 46.79 46.72 46.18 45.60 46.92 46.60 44.79 41.96 43.54 43.86 45.76 45.42 44.28 42.87 44.70 41.44 37.36 37.76 41.25 42.91 40.34 40.99 40.55 40.62 42.33 39.08
53.95 54.47 55.24 56.49 56.43 56.49 55.95 56.78 58.74 56.91 55.25 53.32 46.08 39.39 46.83 48.18 47.39 44.22 43.48 44.14 44.03 48.25 47.13 47.09 46.64 46.92 44.91 43.35 44.49 42.02 42.20 44.31 45.19 44.54 45.29 44.73 42.64 39.85 37.07 39.02 40.94 38.57 40.09 40.36 39.17 37.26 38.59
53.21 53.62 54.50 54.95 55.88 56.17 55.76 55.58 58.04 57.25 55.82 52.23 46.46 42.82 45.06 40.75 42.67 44.45 44.98 44.88 43.46 42.15 46.34 47.12 44.57 45.34 44.23 41.11 41.15 40.04 43.46 43.19 43.32 44.72 44.11 43.86 40.14 40.99 41.19 40.78 40.26 39.39 38.72 39.00 37.67 40.06 37.72
52.38 52.85 53.59 54.21 55.08 55.51 55.99 55.53 55.03 54.74 55.48 50.88 45.86 43.25 45.40 43.59 43.95 43.04 42.76 42.80 43.12 44.67 44.21 42.87 43.80 45.06 45.10 42.77 43.19 40.79 43.58 44.05 43.40 43.36 42.66 42.75 39.25 38.97 38.72 41.73 39.63 38.56 40.64 40.89 40.85 41.76 41.40
51.67 52.06 52.86 53.27 54.06 54.80 54.94 55.08 54.40 53.66 54.84 48.78 51.71 51.01 45.38 42.65 43.21 41.76 42.61 42.42 43.69 46.01 45.59 47.30 45.48 45.52 43.33 45.01 47.21 48.07 47.91 46.99 45.87 43.04 42.33 41.10 39.93 39.08 37.45 40.01 40.20 38.23 41.64 42.06 42.07 43.81 43.17
51.08 51.46 51.94 52.25 53.12 54.10 54.52 54.84 54.87 54.10 53.44 53.53 52.99 50.53 43.26 39.26 42.38 42.39 42.81 44.05 43.40 45.67 44.47 46.78 47.90 46.51 47.45 49.12 47.19 46.31 45.17 44.11 43.88 43.30 44.19 40.62 39.90 39.52 36.73 40.08 34.09 41.31 44.58 44.64 43.41 43.76 44.49
50.64 50.98 51.56 51.63 52.42 53.43 54.13 54.83 54.72 54.88 53.86 52.89 50.18 47.13 44.92 41.55 42.52 42.10 42.74 42.98 43.88 46.40 45.70 46.60 47.83 50.44 48.81 47.11 43.55 40.27 39.50 39.69 39.91 40.52 40.87 42.40 40.79 37.48 35.55 37.19 41.09 41.96 43.05 41.96 41.26 42.31 46.04
50.28 50.75 51.05 51.52 51.89 52.88 53.24 53.84 54.38 54.15 53.65 53.34 51.12 50.04 47.66 42.33 43.50 44.31 42.28 43.88 41.99 42.91 44.31 45.39 45.08 49.02 48.69 45.86 43.97 38.40 37.07 40.45 36.14 36.17 40.04 40.75 40.89 38.39 38.28 33.67 33.11 42.04 44.02 45.21 44.51 38.60 46.63
49.79 50.29 50.74 51.12 51.44 52.31 53.00 53.46 53.79 53.72 53.93 53.07 52.18 50.81 46.46 42.19 46.95 47.16 42.18 42.70 45.90 44.87 43.48 43.27 43.07 42.98 47.25 43.63 40.26 39.13 38.90 42.72 37.11 37.18 34.32 36.22 37.16 35.25 36.92 36.17 40.57 46.01 44.53 45.09 36.96 40.96 45.60
49.36 49.83 50.29 50.78 51.33 51.87 52.36 52.87 53.29 53.39 54.19 53.42 51.21 49.46 48.23 43.89 46.08 47.11 47.73 45.63 45.61 46.39 42.91 44.09 42.29 43.18 42.56 41.43 40.99 40.63 40.05 41.39 41.27 42.91 38.58 38.03 36.87 36.31 38.36 35.91 33.96 47.21 43.76 40.70 46.48 47.48 47.53
49.00 49.37 49.84 50.26 50.73 51.06 51.83 52.50 52.89 52.70 53.64 53.02 48.24 49.20 51.00 46.78 45.88 46.52 46.59 47.24 49.09 49.58 46.59 44.81 45.58 44.23 45.76 43.39 44.13 44.50 40.35 42.28 41.92 37.39 43.78 38.68 43.43 41.54 41.91 42.36 47.86 47.80 47.82 48.62 49.44 49.11 48.48

GFSGBSN_sfc_wetblb_123.txt.gz
Wetbulb
59.55 59.38 58.97 59.20 59.26 59.01 58.83 59.24 59.16 59.49 60.07 60.05 60.02 60.10 60.16 60.01 59.92 59.81 60.13 60.91 61.38 61.73 62.17 62.78 62.46 62.42 59.39 53.08 52.30 59.23 68.06 66.13 62.17 58.67 55.88 53.80 49.63 48.11 44.71 46.31 48.05 44.77 47.26 49.92 50.22 50.48 49.97
60.19 59.86 59.28 59.09 58.75 58.91 58.93 58.80 59.13 59.15 59.76 59.63 59.75 59.73 59.76 59.76 59.50 59.31 59.68 60.66 61.16 61.51 62.42 62.31 62.17 61.66 55.98 49.35 56.99 58.94 60.28 57.80 58.94 57.36 55.21 53.74 50.97 51.54 48.04 47.53 45.35 47.98 48.39 48.46 49.69 49.69 50.04
60.62 60.60 60.10 59.41 58.98 59.11 59.18 59.13 59.07 59.54 59.84 59.42 59.47 59.39 59.55 59.90 59.91 59.66 59.61 60.53 60.73 62.10 62.20 61.90 61.99 60.72 54.97 53.42 56.83 56.95 58.60 57.12 57.99 58.23 55.37 55.73 54.46 50.65 49.85 46.98 50.95 49.39 44.96 46.87 48.23 49.08 47.99
61.34 60.79 60.71 60.53 59.89 59.70 59.75 59.36 59.21 59.97 59.92 59.58 59.19 59.00 59.34 59.89 59.86 59.23 59.51 60.15 60.84 62.09 61.53 61.50 62.03 57.09 50.77 57.73 56.60 57.78 58.03 56.81 58.41 58.24 57.59 56.89 56.00 53.34 50.33 50.60 48.98 45.61 43.68 38.69 46.28 48.49 48.48
62.13 61.84 61.52 60.99 60.78 60.42 60.15 59.71 59.72 60.17 60.10 59.57 58.98 58.64 58.93 59.37 59.53 59.56 59.34 59.87 60.54 62.39 62.62 62.24 56.78 53.09 49.82 59.45 54.62 56.91 57.00 55.67 56.12 56.53 56.33 58.08 54.83 50.16 49.84 43.90 38.18 40.19 34.05 37.63 41.67 48.24 47.55
63.21 62.80 62.58 62.15 61.49 60.94 60.52 60.02 59.93 60.39 60.28 59.61 59.07 59.06 59.25 59.19 59.19 59.45 59.00 59.32 59.79 59.51 59.11 60.73 60.16 48.42 52.61 51.07 55.56 56.48 55.62 57.07 54.41 54.13 53.46 51.88 48.47 44.10 42.84 37.89 31.04 34.86 34.80 38.21 37.47 44.62 45.53
64.20 63.27 62.97 62.48 62.17 61.44 60.95 60.52 60.21 60.45 60.37 59.94 59.55 59.01 58.86 58.92 59.09 58.79 55.51 52.36 49.29 48.47 51.50 49.67 50.06 49.38 51.35 53.81 56.22 54.10 55.88 54.43 53.86 50.15 43.37 47.97 40.55 36.75 38.56 41.05 42.23 40.35 38.19 37.30 41.24 46.61 43.50
62.00 63.51 63.65 62.95 62.41 62.09 61.52 61.12 60.53 60.51 60.53 60.14 59.74 58.92 58.47 58.53 58.39 57.63 53.95 49.94 50.27 51.47 47.35 53.33 52.93 52.39 53.94 53.60 50.14 52.57 55.02 48.15 46.82 42.02 44.36 40.49 37.40 42.42 44.59 44.18 42.52 40.48 38.18 37.43 42.98 46.96 43.31
60.78 61.53 62.10 63.55 62.99 62.45 62.09 61.55 60.89 60.42 60.58 60.26 59.83 58.79 58.16 58.30 57.58 53.65 52.23 51.98 54.54 54.50 46.30 50.82 52.44 51.23 53.04 53.06 49.45 49.96 51.29 48.00 44.54 41.97 41.87 36.83 42.06 46.44 44.53 41.85 40.57 38.96 37.75 37.82 40.06 44.80 44.68
58.81 59.50 60.55 61.51 62.45 62.93 62.17 61.64 60.99 60.32 60.39 59.95 59.39 58.30 57.96 58.14 52.89 51.99 51.39 56.07 55.65 55.10 39.84 45.01 48.41 51.68 53.40 52.91 48.14 53.16 52.37 48.78 45.45 42.65 42.66 40.37 44.75 43.96 41.60 41.16 40.86 35.82 42.86 42.82 42.53 39.83 33.24
56.49 57.53 59.14 59.58 60.48 60.20 62.17 61.34 61.08 60.40 60.06 59.46 58.91 57.81 57.34 57.49 48.33 50.42 52.98 56.01 55.13 52.22 29.89 47.68 48.81 54.28 51.94 48.66 49.66 49.94 52.32 48.47 43.72 42.93 40.43 38.30 40.58 40.19 40.20 40.85 42.47 39.34 43.91 42.38 42.29 39.09 36.39
54.98 55.96 57.22 58.58 58.98 59.86 59.42 60.95 60.89 60.27 59.70 59.27 58.71 57.58 57.24 52.67 51.59 52.44 54.95 55.34 53.06 39.95 32.53 44.78 47.97 46.43 45.24 47.90 47.99 49.76 48.50 49.43 48.32 43.73 42.46 41.02 44.56 43.20 41.27 43.43 43.96 45.13 42.88 42.96 41.47 37.94 31.05
54.34 54.77 56.52 57.24 58.06 58.70 59.38 59.29 60.81 60.80 60.14 59.39 58.42 57.38 56.02 55.18 46.66 53.72 54.99 51.46 36.19 33.76 46.36 43.01 43.73 46.02 43.95 43.80 44.80 44.92 43.92 41.37 38.21 34.05 34.33 39.99 40.86 43.65 45.10 39.99 43.75 41.02 35.87 25.15 26.91 26.32 27.07
53.96 54.75 55.84 56.25 56.92 57.58 59.58 59.51 59.95 61.07 60.37 59.31 57.86 56.97 55.60 54.40 51.43 50.72 50.89 44.05 34.23 42.40 42.46 47.13 45.62 44.27 41.15 43.38 42.25 43.47 41.55 39.35 41.46 39.09 35.35 33.22 32.27 40.08 41.89 40.86 37.48 37.75 36.84 25.81 16.40 21.88 26.45
54.52 55.13 55.24 55.61 56.02 56.66 58.08 58.36 58.41 59.76 59.96 58.42 56.41 51.30 50.63 50.37 52.88 49.48 44.61 36.28 37.38 42.50 45.98 43.59 43.26 38.58 39.02 42.16 41.43 40.68 39.34 39.63 40.45 39.39 34.07 33.57 34.66 41.36 41.75 42.47 41.25 37.50 33.31 39.86 31.93 33.34 28.33
54.53 54.79 54.70 54.99 55.34 55.59 56.64 57.28 58.00 57.63 59.59 57.08 50.11 46.60 45.78 50.34 49.19 47.48 40.05 39.33 41.84 47.23 46.97 44.34 38.31 40.38 36.74 38.97 38.01 38.39 38.74 41.80 41.53 42.92 40.60 37.14 31.17 39.51 41.95 42.25 43.49 38.94 41.77 32.95 33.50 20.47 22.75
54.15 54.60 54.61 54.49 54.56 54.84 55.70 56.72 57.37 56.99 56.97 56.49 49.01 43.11 47.80 50.50 49.05 41.92 35.41 38.28 43.98 47.99 47.74 43.57 40.72 39.81 40.32 38.95 38.75 37.83 38.94 41.20 43.97 42.62 41.39 37.88 34.62 35.83 38.87 37.18 36.45 37.68 35.83 35.92 34.81 33.18 26.19
52.37 52.71 53.86 54.27 54.09 54.04 54.87 56.07 56.80 57.08 55.60 54.54 47.85 37.27 47.92 52.08 39.69 37.21 36.58 40.21 46.51 46.26 46.65 45.15 43.58 43.58 41.09 40.40 38.86 38.66 38.81 41.34 44.43 43.06 39.08 38.96 35.21 31.37 34.22 39.41 41.07 38.24 35.09 34.14 28.18 28.33 30.49
52.21 52.11 52.68 53.51 53.69 53.53 53.96 55.24 55.74 55.86 54.75 51.91 44.29 42.89 48.79 48.30 34.24 34.57 35.94 40.15 43.35 45.41 44.18 44.09 42.36 44.58 43.53 40.89 37.82 40.07 39.63 43.65 43.48 42.07 39.53 39.64 34.28 28.97 30.73 35.40 37.79 34.92 37.92 36.34 34.30 32.13 30.10
51.37 51.55 51.64 51.91 53.09 52.83 53.25 54.29 54.75 55.37 55.04 53.06 44.72 35.73 42.93 45.69 43.18 36.10 35.36 37.15 38.03 44.54 45.28 45.05 43.35 43.83 41.58 40.07 40.69 38.51 37.98 41.92 42.62 43.96 48.02 43.87 35.53 32.99 29.55 32.73 35.65 32.96 36.27 35.98 33.13 26.51 28.86
50.98 50.93 51.49 51.81 52.22 52.63 53.18 53.57 54.55 55.00 54.66 51.91 45.12 36.96 42.27 36.48 39.52 40.25 37.52 36.92 37.23 37.79 44.49 44.49 41.24 41.99 40.38 36.71 36.86 37.33 38.63 38.71 41.40 46.38 40.67 38.54 32.96 35.45 36.68 37.83 36.84 35.67 36.10 36.26 32.82 32.13 28.35
50.39 50.77 51.12 51.44 51.66 51.93 52.50 52.98 53.63 54.36 53.48 48.62 42.10 41.17 43.24 39.59 40.02 39.45 39.36 36.81 37.05 40.19 41.97 41.30 40.30 42.17 41.26 37.93 38.86 36.48 38.18 36.79 36.38 39.09 37.96 37.72 32.32 34.07 33.25 37.48 36.92 34.99 36.87 36.72 35.81 35.13 33.34
50.13 50.38 50.59 51.05 51.23 51.37 51.81 52.14 52.46 52.97 51.92 47.21 48.44 48.66 45.12 39.43 37.94 37.01 36.84 37.27 39.44 41.60 43.16 45.74 43.19 41.97 40.73 41.73 43.06 42.19 42.09 41.38 40.30 37.31 36.51 35.15 33.87 32.29 28.94 35.38 35.35 31.95 35.70 36.74 37.03 37.23 35.84
49.81 49.95 50.17 50.58 50.88 51.03 51.31 51.51 52.27 52.39 51.90 49.71 48.82 47.57 43.40 37.34 37.75 36.95 38.61 38.92 38.27 40.52 41.39 43.89 44.73 42.24 44.03 45.36 44.61 42.47 40.37 40.22 40.60 40.10 40.80 35.66 34.63 33.09 28.04 31.87 25.80 36.71 39.65 40.59 38.76 39.90 39.69
49.45 49.62 49.72 50.05 50.39 50.47 50.86 51.21 51.80 52.32 51.96 49.54 49.38 45.89 43.26 38.26 39.56 39.62 39.29 39.64 39.90 40.39 41.12 43.78 44.15 46.03 46.08 42.64 36.68 34.55 33.76 34.65 36.64 37.96 37.12 37.38 35.31 29.68 26.69 27.25 34.26 36.49 39.16 38.28 37.50 37.41 41.50
49.21 49.36 49.48 49.72 49.98 50.04 50.26 50.69 51.25 51.69 51.96 49.40 49.01 49.70 44.70 37.48 40.00 42.50 40.29 39.81 38.24 38.12 38.50 41.15 43.55 46.98 43.98 39.22 35.98 28.93 27.71 32.11 30.14 31.75 36.33 36.84 35.01 31.45 28.32 25.60 26.48 36.74 40.36 42.56 40.39 31.56 41.32
48.82 49.00 49.21 49.46 49.65 49.73 50.05 50.43 50.98 51.44 51.66 49.65 48.73 49.97 45.34 38.27 40.43 43.16 40.93 39.63 40.76 40.21 38.11 38.58 40.45 40.50 41.97 35.86 33.06 30.14 31.25 36.71 28.67 28.69 28.30 29.60 29.12 27.00 26.92 26.22 33.29 41.05 41.23 41.63 30.86 34.17 41.07
48.40 48.61 48.79 48.93 49.10 49.33 49.76 50.26 50.70 51.43 52.14 49.53 46.46 50.13 46.04 41.86 42.35 45.24 47.52 44.58 41.21 41.92 38.11 38.71 39.14 38.88 36.32 34.64 33.58 32.89 31.49 34.86 32.53 33.38 30.81 29.33 26.48 26.12 28.46 25.97 27.27 40.85 39.24 36.14 38.83 40.07 41.73
48.05 48.22 48.40 48.57 48.75 49.00 49.39 49.92 50.45 51.04 51.52 50.98 44.03 49.63 50.39 44.59 43.89 47.43 47.97 50.85 46.88 43.10 42.72 40.19 40.97 38.72 39.47 36.35 35.57 35.33 33.70 34.12 34.45 29.29 35.41 31.88 34.93 31.06 32.80 33.56 40.32 42.30 40.27 41.59 42.98 42.15 41.88